Weather History for Jacksonville NAS, FL

Change the Weather History Date:

Wednesday, October 9, 2013

  Actual Average Record
Temperature  
Mean Temperature 67 °F -  
Max Temperature 72 °F 80 °F 91 °F (2014)
Min Temperature 62 °F 67 °F 50 °F (2000)
Cooling Degree Days 2    
Growing Degree Days 17 (Base 50)    
Moisture  
Dew Point 61 °F    
Average Humidity 86    
Maximum Humidity 93    
Minimum Humidity 68    
Precipitation  
Precipitation 0.00 in - - ()
Sea Level Pressure  
Sea Level Pressure 30.06 in    
Wind  
Wind Speed 13 mph (NNW)    
Max Wind Speed 18 mph    
Max Gust Speed -    
Visibility 7 miles    
Events Rain    
Averages and records for this station are not official NWS values.
T = Trace of Precipitation, MM = Missing Value Source: NWS Daily Summary

Daily Weather History Graph

Daily Weather History Graph

Search for Another Location

Airport:

Trip Planner

Search our weather history database for the weather conditions in past years. The results will help you decide how hot, cold, wet, or windy it might be!

Date:

Astronomy

Oct. 09, 2013 Rise Set
Actual Time 7:25 AM EDT 7:02 PM EDT
Civil Twilight 7:01 AM EDT 7:26 PM EDT
Nautical Twilight 6:33 AM EDT 7:54 PM EDT
Astronomical Twilight 6:05 AM EDT 8:21 PM EDT
Moon 12:02 PM EDT (10/9) 10:51 PM EDT (10/9)
Length of Visible Light 12h 25m
Length of Day
11h 37m
Waxing Crescent, 25% of the Moon is Illuminated
Oct 9
Waxing Crescent
Oct 11
First Quarter
Oct 18
Full
Oct 26
Last Quarter
Nov 3
New

Hourly Weather History & Observations

Time (EDT) Temp. Dew Point Humidity Pressure Visibility Wind Dir Wind Speed Gust Speed Precip Events Conditions
12:53 AM 66.0 °F 63.0 °F 90% 30.01 in 6.0 mi North 16.1 mph - N/A   Overcast
1:53 AM 64.9 °F 63.0 °F 93% 30.01 in 4.0 mi North 16.1 mph - 0.00 in   Light Drizzle
2:53 AM 64.0 °F 62.1 °F 93% 30.01 in 4.0 mi North 17.3 mph - 0.00 in   Overcast
3:53 AM 63.0 °F 61.0 °F 93% 30.02 in 4.0 mi North 18.4 mph - 0.00 in   Light Drizzle
4:53 AM 62.1 °F 60.1 °F 93% 30.02 in 5.0 mi North 18.4 mph - 0.00 in   Overcast
5:53 AM 62.1 °F 60.1 °F 93% 30.03 in 5.0 mi North 15.0 mph - N/A   Overcast
6:53 AM 62.1 °F 60.1 °F 93% 30.04 in 5.0 mi NNW 13.8 mph - N/A   Overcast
7:53 AM 62.1 °F 60.1 °F 93% 30.06 in 5.0 mi NNW 13.8 mph - N/A   Overcast
8:53 AM 62.1 °F 60.1 °F 93% 30.07 in 3.0 mi NNW 15.0 mph - 0.00 in Rain Light Rain
8:56 AM 62.1 °F 60.1 °F 93% 30.09 in 3.0 mi North 15.0 mph - 0.00 in Rain Light Rain
9:53 AM 62.1 °F 60.1 °F 93% 30.08 in 4.0 mi North 17.3 mph - 0.00 in   Overcast
10:53 AM 62.1 °F 59.0 °F 90% 30.10 in 5.0 mi North 15.0 mph - N/A   Overcast
11:53 AM 62.1 °F 59.0 °F 90% 30.11 in 7.0 mi NNW 10.4 mph - N/A   Overcast
12:53 PM 63.0 °F 59.0 °F 87% 30.10 in 7.0 mi NNW 13.8 mph - N/A   Overcast
1:53 PM 64.9 °F 59.0 °F 81% 30.08 in 7.0 mi NNW 8.1 mph - N/A   Overcast
2:53 PM 66.0 °F 59.0 °F 78% 30.06 in 7.0 mi NNW 11.5 mph - N/A   Overcast
3:45 PM 68.0 °F 60.1 °F 76% 30.07 in 10.0 mi NNW 11.5 mph - N/A   Overcast
3:53 PM 68.0 °F 60.1 °F 76% 30.06 in 10.0 mi North 12.7 mph - N/A   Mostly Cloudy
4:53 PM 70.0 °F 60.1 °F 71% 30.04 in 10.0 mi North 8.1 mph - N/A   Scattered Clouds
5:53 PM 72.0 °F 61.0 °F 68% 30.04 in 10.0 mi Calm Calm - N/A   Partly Cloudy
6:53 PM 71.1 °F 62.1 °F 73% 30.04 in 10.0 mi WSW 5.8 mph - N/A   Partly Cloudy
7:53 PM 69.1 °F 62.1 °F 78% 30.04 in 10.0 mi WSW 4.6 mph - N/A   Partly Cloudy
8:53 PM 68.0 °F 62.1 °F 81% 30.05 in 10.0 mi WSW 5.8 mph - N/A   Partly Cloudy
9:53 PM 66.0 °F 62.1 °F 87% 30.06 in 10.0 mi Calm Calm - N/A   Partly Cloudy
10:53 PM 66.0 °F 62.1 °F 87% 30.07 in 10.0 mi WSW 4.6 mph - N/A   Mostly Cloudy
11:53 PM 66.0 °F 62.1 °F 87% 30.07 in 10.0 mi WSW 4.6 mph - N/A   Scattered Clouds